Location: Strawberry
(45.6646°N, 111.9596°W)
Time: 23:59:17
(UTC+00:00)

Vanguard 1 Rocket - Pass Details

Date: 26 September 2022
Orbit: 650 x 4225 km, 34.3° (Epoch: 05 December)

Event Time Altitude Azimuth Distance (km) Brightness Sun altitude
Rises 06:16:02 0° 247° (WSW) 6,351 11.7 -43.5°
Reaches altitude 10° 06:21:21 10° 241° (WSW) 4,712 10.9 -43.8°
Enters shadow 06:22:00 11° 239° (WSW) 4,508 10.8 -43.8°
